User: anonymous   Login
Location: Columbia
(38.9520°N, 92.3340°W)
Time: 06:52:06
(UTC-05:00)
Language:

Cosmos 158 Rocket - Orbit

View from above orbital plane
View from above orbital plane
View from above satellite
View from above satellite

Ground track
Ground track

The orbit data is extracted from the following two-line orbital elements,

1 02802U 67045B   16144.13300157  .00000026  00000-0  15772-4 0  9994
2 02802  74.0108 172.7604 0067592 320.1087  39.5112 14.43578715572696
Epoch (UTC): 23 May 2016 03:11:31
Eccentricity: 0.0067592
inclination: 74.0108°
perigee height: 698 km
apogee height: 795 km
right ascension of ascending node: 172.7604°
argument of perigee: 320.1087°
revolutions per day: 14.43578715
mean anomaly at epoch: 39.5112°
orbit number at epoch: 57269

The dashed part of the orbit path shows where the satellite is in the earth's shadow,  

DLR